SCP
0 0 0 0 0 0 0 0 0 0 0 0 0 0 0 0 0 0 0 0 0 0 0 0 0 0 0 0 0 0 0 0 0 0 0 0 0 0 0 0 0 0 0
0 0 0 0 0 0 0 0 0 0 0 0 0 0 0 0 0 0 0 0 0 0 0 0 0 0 0 0 0 0 0 0 0 0 0 0 0 0 0 0 0 0 0
0 0 0 0 0 0 0 0 0 0 0 0 0 0 0 0 0 0 0 0 0 0 0 0 0 0 0 0 0 0 0 0 0 0 0 0 0 0 0 0 0 0 0
0 0 0 0 0 0 0 0 0 0 0 0 0 0 0 0 0 0 0 0 0 0 0 0 0 0 0 0 0 0 0 0 0 0 0 0 0 0 0 0 0 0 0
0 0 0 0 0 0 0 0 0 0 0 0 0 0 0 0 0 0 0 0 0 0 0 0 0 0 0 0 0 0 0 0 0 0 0 0 0 0 0 0 0 0 0
0 0 0 0 0 0 0 0 0 0 0 0 0 0 0 0 0 0 0 0 0 0 0 0 0 0 0 0 0 0 0 0 0 0 0 0 0 0 0 0 0 0 0
0 0 0 0 0 0 0 0 0 0 0 0 0 0 0 0 0 0 0 0 0 0 0 0 0 0 0 0 0 0 0 0 0 0 0 0 0 0 0 0 0 0 0
0 0 0 0 0 0 0 0 0 0 0 0 0 0 0 0 0 0 0 0 0 0 0 0 0 0 0 0 0 0 0 0 0 0 0 0 0 0 0 0 0 0 0
0 0 0 0 0 0 0 0 0 0 0 0 0 0 0 0 0 0 0 0 0 0 0 0 0 0 0 0 0 0 0 0 0 0 0 0 0 0 0 0 0 0 0
0 0 0 0 0 0 0 0 0 0 0 0 0 0 0 0 0 0 0 0 0 0 0 0 0 0 0 0 0 0 0 0 0 0 0 0 0 0 0 0 0 0 0
0 0 0 0 0 0 0 0 0 0 0 0 0 0 0 0 0 0 0 0 0 0 0 0 0 0 0 0 0 0 0 0 0 0 0 0 0 0 0 0 0 0 0
0 0 0 0 0 0 0 0 0 0 0 0 0 0 0 0 0 0 0 0 0 0 0 0 0 0 0 0 0 0 0 0 0 0 0 0 0 0 0 0 0 0 0
0 0 0 0 0 0 0 0 0 0 0 0 0 0 0 0 0 0 0 0 0 0 0 0 0 0 0 0 0 0 0 0 0 0 0 0 0 0 0 0 0 0 0
0 0 0 0 0 0 0 0 0 0 0 0 0 0 0 0 0 0 0 0 0 0 0 0 0 0 0 0 0 0 0 0 0 0 0 0 0 0 0 0 0 0 0
0 0 0 0 0 0 0 0 0 0 0 0 0 0 0 0 0 0 0 0 0 0 0 0 0 0 0 0 0 0 0 0 0 0 0 0 0 0 0 0 0 0 0
0 0 0 0 0 0 0 0 0 0 0 0 0 0 0 0 0 0 0 0 0 0 0 0 0 0 0 0 0 0 0 0 0 0 0 0 0 0 0 0 0 0 0
0 0 0 0 0 0 0 0 0 0 0 0 0 0 0 0 0 0 0 0 0 0 0 0 0 0 0 0 0 0 0 0 0 0 0 0 0 0 0 0 0 0 0
0 0 0 0 0 0 0 0 0 0 0 0 0 0 0 0 0 0 0 0 0 0 0 0 0 0 0 0 0 0 0 0 0 0 0 0 0 0 0 0 0 0 0
0 0 0 0 0 0 0 0 0 0 0 0 0 0 0 0 0 0 0 0 0 0 0 0 0 0 0 0 0 0 0 0 0 0 0 0 0 0 0 0 0 0 0
0 0 0 0 0 0 0 0 0 0 0 0 0 0 0 0 0 0 0 0 0 0 0 0 0 0 0 0 0 0 0 0 0 0 0 0 0 0 0 0 0 0 0
0 0 0 0 0 0 0 0 0 0 0 0 0 0 0 0 0 0 0 0 0 0 0 0 0 0 0 0 0 0 0 0 0 0 0 0 0 0 0 0 0 0 0
0 0 0 0 0 0 0 0 0 0 0 0 0 0 0 0 0 0 0 0 0 0 0 0 0 0 0 0 0 0 0 0 0 0 0 0 0 0 0 0 0 0 0
0 0 0 0 0 0 0 0 0 0 0 0 0 0 0 0 0 0 0 0 0 0 0 0 0 0 0 0 0 0 0 0 0 0 0 0 0 0 0 0 0 0 0
0 0 0 0 0 0 0 0 0 0 0 0 0 0 0 0 0 0 0 0 0 0 0 0 0 0 0 0 0 0 0 0 0 0 0 0 0 0 0 0 0 0 0
0 0 0 0 0 0 0 0 0 0 0 0 0 0 0 0 0 0 0 0 0 0 0 0 0 0 0 0 0 0 0 0 0 0 0 0 0 0 0 0 0 0 0
0 0 0 0 0 0 0 0 0 0 0 0 0 0 0 0 0 0 0 0 0 0 0 0 0 0 0 0 0 0 0 0 0 0 0 0 0 0 0 0 0 0 0
Wind_Speed
9 9 8 9 9 10 8 9 8 8 8 9 8 8 8 8 7 7 8 9 9 9 9 10 10 9 7 6 6 6 7 7 10 7 6 7 7 8 6 2 2 2 2
8 8 8 8 9 9 9 9 8 8 8 8 8 8 9 9 8 9 11 11 12 12 12 11 11 9 9 7 6 8 8 8 9 11 7 6 7 6 3 2 2 3 2
8 8 7 8 8 9 9 8 8 8 8 8 8 9 9 9 10 11 12 13 13 13 12 12 11 10 9 7 8 8 7 8 7 9 8 5 4 2 2 4 5 3 4
8 8 7 7 8 8 8 7 7 7 7 7 8 9 9 9 10 13 15 15 14 13 12 11 10 9 9 9 8 8 8 9 8 8 7 5 3 2 3 4 4 4 5
8 8 7 7 7 6 6 6 6 7 8 8 8 8 8 6 9 14 15 16 15 14 12 10 9 12 14 12 11 10 11 9 8 8 7 5 4 4 4 3 5 5 5
7 7 7 6 6 6 6 5 6 6 7 7 7 8 8 7 8 17 19 16 15 12 10 9 10 10 15 19 22 22 21 15 11 8 6 5 4 5 6 6 5 2 3
6 6 6 6 6 6 8 7 7 6 6 6 6 6 7 5 8 14 24 18 14 10 10 9 9 11 14 13 19 23 21 20 17 9 7 5 5 6 8 7 5 5 5
5 6 6 7 7 7 7 7 6 5 5 5 5 5 5 7 10 14 24 16 13 12 11 9 9 11 13 17 17 16 14 8 7 7 5 4 7 9 9 9 11 10 8
6 6 7 7 8 8 7 7 6 5 5 5 5 5 5 7 11 16 21 14 12 14 13 10 10 12 17 21 17 15 12 3 3 6 6 11 16 17 15 12 10 10 9
7 7 6 6 7 8 6 6 6 5 5 7 6 5 6 8 11 15 20 12 12 13 12 11 13 16 20 20 14 12 8 3 6 9 12 16 15 14 12 9 7 9 9
7 7 7 6 7 6 4 5 5 5 6 6 7 6 6 8 11 14 18 13 13 13 11 10 10 19 18 17 14 9 6 5 8 11 11 12 10 9 9 7 6 4 6
7 8 7 6 7 6 4 4 4 4 5 6 6 8 7 7 10 14 17 18 17 13 10 9 11 18 15 14 11 12 10 8 7 9 10 9 9 9 9 9 11 11 10
7 7 6 7 5 4 4 5 4 3 6 8 9 10 9 9 10 15 17 18 20 12 10 17 17 15 11 9 13 14 9 6 6 9 10 10 9 10 11 11 13 12 12
7 6 7 5 4 5 4 4 5 7 8 9 10 10 10 9 10 12 12 12 15 13 12 13 13 12 9 9 9 8 7 7 7 8 10 10 10 9 10 9 10 9 10
7 5 9 7 6 5 6 8 9 10 9 8 9 9 9 10 12 17 13 12 12 12 12 7 7 7 7 6 6 7 6 7 8 8 9 10 9 9 9 7 7 9 9
7 7 8 6 6 7 6 9 13 10 10 8 6 8 9 9 14 17 19 20 19 18 9 7 8 7 7 6 6 6 7 7 7 8 8 8 9 9 8 7 7 8 9
8 7 8 8 8 8 8 7 5 4 3 2 4 9 11 12 13 16 19 18 15 14 8 7 8 8 7 6 5 6 6 7 7 7 8 8 8 8 7 7 7 7 8
8 9 9 7 8 9 10 10 9 8 6 5 5 12 15 13 11 14 16 12 9 10 8 8 8 8 7 6 5 5 6 6 6 7 7 7 7 7 6 6 6 7 7
8 7 7 8 9 10 11 11 10 11 9 9 9 12 15 14 11 12 11 7 7 8 8 8 8 7 7 6 5 6 6 6 7 6 6 6 6 5 5 5 6 8 7
6 7 8 9 10 11 11 11 10 10 10 9 9 10 11 10 9 9 8 7 7 7 8 8 8 8 7 6 5 5 6 6 6 5 5 4 4 4 5 6 5 5 5
8 8 10 10 11 11 11 11 10 10 9 9 8 10 14 9 8 9 8 7 7 7 7 7 7 7 7 6 5 5 6 5 4 4 3 4 4 4 4 5 5 6 7
8 8 9 10 11 11 10 10 10 9 10 10 9 10 13 9 8 8 8 8 7 6 6 6 6 6 5 5 4 4 4 4 4 4 4 4 4 5 5 5 5 5 6
8 9 9 10 11 11 10 10 9 9 9 10 10 10 10 9 9 9 9 8 8 7 7 7 6 6 5 4 4 4 4 3 3 3 3 3 3 3 4 5 6 6 6
9 10 10 10 10 10 10 10 10 10 10 10 10 10 10 10 10 11 10 9 9 9 8 7 7 9 10 7 5 5 5 3 2 3 5 4 3 2 2 3 4 5 7
9 9 9 9 9 9 9 10 10 10 10 9 9 9 10 10 10 11 11 10 11 11 12 11 9 10 12 13 10 8 7 7 4 2 4 4 4 3 2 3 4 5 7
9 9 9 9 9 8 8 8 9 9 8 8 8 8 8 9 9 10 10 11 11 11 12 10 13 15 15 11 11 11 10 9 7 4 3 4 5 3 2 2 4 5 8
Wind_Direction
9 5 358 351 347 342 339 338 336 329 325 322 322 320 317 312 317 325 325 321 316 308 299 291 285 281 275 272 270 269 266 264 276 277 269 274 273 276 281 244 179 154 101
7 4 1 351 347 342 337 333 330 326 324 324 324 324 329 339 355 359 347 337 323 313 307 301 296 292 282 275 270 268 265 259 267 278 276 269 265 268 255 182 128 99 56
2 358 353 343 339 334 329 326 326 325 324 331 338 344 349 3 15 2 344 331 319 309 304 301 299 298 295 290 283 276 270 268 258 268 274 261 254 232 155 107 83 56 37
354 345 341 334 328 324 323 323 327 330 333 349 350 353 1 11 14 356 343 326 315 308 302 297 296 301 302 304 299 290 285 278 266 262 265 255 230 166 133 119 98 63 42
337 334 335 330 326 325 326 332 341 344 348 350 351 358 360 8 11 356 342 328 318 310 308 310 315 316 318 318 310 299 290 277 266 256 252 239 208 159 143 126 117 100 58
325 324 329 332 335 341 340 353 350 347 349 350 357 2 1 9 357 351 348 328 314 314 322 324 319 321 325 318 311 305 296 281 262 244 238 224 189 147 134 137 135 129 82
321 328 340 345 348 349 344 346 344 344 345 346 356 6 4 15 360 349 347 331 318 321 323 320 323 327 324 317 313 308 298 282 257 234 227 210 165 146 141 131 102 85 84
350 350 348 347 345 337 332 339 338 337 334 335 343 359 358 10 10 357 349 331 326 328 321 319 329 330 326 324 315 308 302 285 235 212 216 181 138 134 126 119 113 101 80
355 351 349 343 334 323 330 336 331 329 328 332 337 347 1 15 17 3 354 332 332 329 321 328 339 334 328 327 321 315 315 316 162 163 146 126 123 124 126 122 122 114 100
341 333 326 321 315 312 326 329 328 326 337 338 344 359 21 17 14 6 352 336 335 328 323 332 336 334 331 330 327 322 327 48 104 104 104 105 108 109 106 113 123 124 118
319 308 301 297 295 300 322 316 323 343 350 345 356 3 27 18 4 1 348 341 336 326 327 332 329 330 333 334 334 339 0 73 97 103 104 106 104 99 91 82 75 86 103
309 303 299 291 296 312 307 304 326 360 359 357 0 354 5 8 2 351 341 334 330 326 328 327 325 331 340 347 354 8 34 73 97 103 105 104 103 100 95 90 87 85 90
309 309 302 294 293 301 303 317 334 16 12 3 2 353 354 357 355 349 340 333 333 336 333 330 333 343 356 358 2 18 37 64 92 101 101 101 101 103 103 101 98 96 92
322 331 319 312 343 327 321 354 15 28 26 15 6 352 354 354 355 348 341 337 339 340 336 329 335 353 7 8 9 27 46 56 77 94 101 103 105 107 108 112 114 111 107
330 356 333 341 2 339 26 45 63 62 64 41 15 356 0 356 346 336 338 337 334 327 326 334 357 360 7 20 25 36 51 61 73 86 100 106 108 107 108 109 113 116 118
350 6 342 355 2 2 33 75 77 101 99 84 49 13 11 356 333 337 341 338 335 333 343 2 2 1 6 23 36 43 53 63 70 82 94 103 109 110 108 104 111 116 121
7 10 348 3 6 12 15 51 87 102 117 113 32 16 1 346 342 345 345 341 349 354 7 6 3 2 5 21 41 52 63 69 73 81 90 98 105 108 107 111 119 123 124
20 14 0 7 14 22 27 34 37 36 30 18 15 18 360 353 355 353 346 350 3 5 4 3 3 2 6 22 44 56 67 76 79 83 88 93 99 104 107 112 120 127 127
42 21 7 18 23 32 35 35 32 28 25 21 15 9 356 351 357 357 353 5 7 2 357 358 0 3 9 23 44 57 67 78 83 84 88 95 102 108 115 120 125 134 131
84 41 22 33 30 38 37 34 30 26 22 21 18 8 353 351 358 358 1 3 5 1 356 353 355 4 12 23 36 59 72 81 85 84 88 97 108 115 121 125 126 122 111
49 47 40 47 43 41 39 35 31 26 23 20 15 4 352 353 357 357 359 1 2 357 352 349 350 359 11 22 29 51 72 83 87 86 87 99 113 113 108 106 108 109 111
46 50 45 52 55 45 41 37 34 30 26 21 9 360 354 358 1 2 1 1 360 355 347 345 349 357 6 18 26 43 67 84 85 75 70 79 93 106 110 112 116 118 118
52 52 53 59 64 56 44 40 37 34 29 23 13 5 2 2 4 6 5 3 1 1 357 355 357 2 5 16 29 44 58 70 85 106 91 74 76 92 112 123 131 134 131
57 55 55 59 65 59 48 41 39 36 33 26 17 10 5 4 5 7 7 5 7 9 9 10 13 18 24 28 35 41 38 34 51 123 136 119 99 78 96 121 131 136 125
59 59 57 56 60 65 58 48 42 40 37 30 20 13 8 7 7 7 6 7 10 13 14 16 21 23 30 35 34 31 25 32 44 94 148 142 140 138 141 130 123 122 122
61 61 62 59 55 58 63 60 51 47 43 37 28 20 14 11 9 9 8 11 12 12 13 14 21 26 22 25 26 23 22 27 33 47 118 135 137 143 143 122 128 124 127